Location: Veytaux
(46.4185°N, 6.9320°E)
Time: 07:34:34
(UTC+00:00)

USA 306 - Pass Details

Date: 27 May 2022
Orbit: 545 x 556 km, 54.0° (Epoch: 20 June)

Event Time Altitude Azimuth Distance (km) Brightness Sun altitude
Exits shadow 00:02:22 58° 117° (ESE) 647 3.0 -21.9°
Drops below altitude 10° 00:06:10 10° 62° (ENE) 1,844 6.0 -21.8°
Sets 00:08:26 0° 59° (ENE) 2,745 7.0 -21.7°
